NW Arkansas Airport, AR

7:17 PM CDT on April 29, 2017 (GMT -0500)
Northwest Arkansas Regional

Weather History for KXNA - April, 2013

Change the Weather History Date:

Wednesday, April 17, 2013

  Actual Average (KVBT) Record (KVBT)
Temperature  
Mean Temperature 67 °F -  
Max Temperature 81 °F 71 °F 86 °F (1955)
Min Temperature 55 °F 45 °F 29 °F (1956)
Cooling Degree Days 2    
Growing Degree Days 17 (Base 50)    
Moisture  
Dew Point 64 °F    
Average Humidity 79    
Maximum Humidity 100    
Minimum Humidity 62    
Precipitation  
Precipitation 0.00 in - - ()
Sea Level Pressure  
Sea Level Pressure 29.80 in    
Wind  
Wind Speed 10 mph (SSE)    
Max Wind Speed 25 mph    
Max Gust Speed 34 mph    
Visibility 10 miles    
Events Rain    
Averages and records for this station are not official NWS values.
T = Trace of Precipitation, MM = Missing Value Source: NWS Daily Summary

Daily Weather History Graph

Daily Weather History Graph

Search for Another Location

Airport or City:

Trip Planner

Search our weather history database for the weather conditions in past years. The results will help you decide how hot, cold, wet, or windy it might be!

Date:

Astronomy

Apr. 17, 2013 Rise Set
Actual Time 6:40 AM CDT 7:53 PM CDT
Civil Twilight 6:14 AM CDT 8:19 PM CDT
Nautical Twilight 5:42 AM CDT 8:51 PM CDT
Astronomical Twilight 5:09 AM CDT 9:24 PM CDT
Moon 11:58 AM CDT (4/17) 1:27 AM CDT (4/17)
Length of Visible Light 14h 05m
Length of Day
13h 12m
Waxing Crescent, 42% of the Moon is Illuminated
Apr 17
Waxing Crescent
Apr 18
First Quarter
Apr 25
Full
May 2
Last Quarter
May 9
New

Hourly Weather History & Observations

Time (CDT) Temp. Dew Point Humidity Pressure Visibility Wind Dir Wind Speed Gust Speed Precip Events Conditions
12:53 AM 57.9 °F 55.9 °F 93% 29.94 in 10.0 mi NNE 4.6 mph - N/A   Clear
1:53 AM 57.0 °F 57.0 °F 100% 29.93 in 10.0 mi Calm Calm - N/A   Clear
2:53 AM 57.0 °F 55.9 °F 96% 29.92 in 10.0 mi Calm Calm - N/A   Scattered Clouds
3:53 AM 55.9 °F 55.9 °F 100% 29.91 in 10.0 mi North 3.5 mph - N/A   Clear
4:53 AM 57.0 °F 55.9 °F 96% 29.89 in 10.0 mi SE 3.5 mph - N/A   Clear
5:53 AM 57.9 °F 57.9 °F 100% 29.89 in 8.0 mi SE 6.9 mph - N/A   Partly Cloudy
6:53 AM 66.0 °F 64.9 °F 96% 29.88 in 7.0 mi SSE 10.4 mph - N/A   Mostly Cloudy
7:53 AM 68.0 °F 66.0 °F 93% 29.88 in 7.0 mi South 10.4 mph - N/A   Partly Cloudy
9:53 AM 72.0 °F 68.0 °F 87% 29.89 in 10.0 mi South 20.7 mph 26.5 mph N/A   Mostly Cloudy
10:53 AM 75.9 °F 69.1 °F 79% 29.86 in 10.0 mi South 17.3 mph 24.2 mph N/A   Partly Cloudy
11:35 AM 75.2 °F 68.0 °F 78% 29.89 in 10.0 mi South 23.0 mph 33.4 mph N/A   Mostly Cloudy
11:53 AM 73.9 °F 68.0 °F 82% 29.86 in 10.0 mi South 15.0 mph 31.1 mph N/A   Overcast
12:53 PM 75.0 °F 68.0 °F 79% 29.83 in 10.0 mi South 20.7 mph 29.9 mph N/A   Overcast
1:24 PM 75.2 °F 66.2 °F 73% 29.85 in 10.0 mi South 20.7 mph 26.5 mph N/A   Overcast
1:53 PM 78.1 °F 66.9 °F 68% 29.80 in 10.0 mi South 25.3 mph 34.5 mph N/A   Mostly Cloudy
2:53 PM 78.1 °F 66.0 °F 66% 29.77 in 10.0 mi South 17.3 mph 31.1 mph N/A   Partly Cloudy
3:53 PM 78.1 °F 66.0 °F 66% 29.74 in 10.0 mi South 19.6 mph 25.3 mph N/A   Overcast
4:53 PM 79.0 °F 64.9 °F 62% 29.71 in 10.0 mi South 19.6 mph 28.8 mph N/A   Partly Cloudy
5:53 PM 79.0 °F 64.9 °F 62% 29.70 in 10.0 mi South 20.7 mph 29.9 mph N/A   Overcast
6:53 PM 77.0 °F 64.0 °F 64% 29.67 in 10.0 mi South 18.4 mph 26.5 mph N/A   Clear
7:53 PM 75.9 °F 64.0 °F 67% 29.66 in 10.0 mi South 13.8 mph - N/A   Partly Cloudy
8:53 PM 75.0 °F 64.0 °F 69% 29.65 in 10.0 mi South 15.0 mph - N/A   Overcast
9:53 PM 75.0 °F 63.0 °F 66% 29.65 in 10.0 mi South 15.0 mph 24.2 mph N/A   Overcast
10:53 PM 75.0 °F 63.0 °F 66% 29.62 in 10.0 mi South 16.1 mph 28.8 mph N/A   Partly Cloudy
11:53 PM 72.0 °F 64.9 °F 78% 29.60 in 10.0 mi South 13.8 mph 24.2 mph 0.00 in Rain Light Rain